STARLINK-4212, 52846

Orbit data source: Space-Track

STARLINK-4212, 52846 is a payload satellite owned by SpaceX/Seattle (US) in LEO that was launched on Fri, 17 Jun 2022 UTC via an FALCON 9 launch vehicle from the Air Force Eastern Test Range (AFETR). Payload-class satellites include a variety of spacecraft equipped with specific instruments for various scientific and technological missions. These include communications satellites like Starlink; space stations such as the ISS; scientific satellites like the Hubble; Earth observation satellites from companies like Planet Labs, Umbra, and HawkEye 360; GPS; miniature CubeSats for education and research; and military/defense satellites.

Loading next visibility...
Identifier
52846, 2022-062S
Orbit
LEO
Country
Flag of USUS
Related business
Manufacturer
SpaceX/Seattle
Mission
Operational Commercial Communications
Bus & Motor
STARLINK, Unknown motor
Mass
297 kg wet, ~275 kg dry
Launch date (UTC)
2022-06-17 (3 years ago)
Launch vehicle
FALCON 9
Launch site
Air Force Eastern Test Range (AFETR)
Object type
Payload
Rocket body
Debris
Shape & HBR
Box + 1 Pan, 10.1 m
Radar Cross Section
13.562 m², Large (>1 m²)

Expand to show TLE details & history
Last TLE update: 1 day ago

TLE from 1 day ago
0 STARLINK-4212
1 52846U 22062S   25348.47434400 -.00000538  00000-0 -15730-4 0  9993
2 52846  53.2178  56.6794 0001215  87.4505 272.6627 15.08829385192922
Epoch: 2025-12-14T11:23Z
TLE epoch observation values (Epoch: 2025-12-14T11:23:03.321Z)
Latitude
0.00003°
Longitude
162.52885°
Altitude
540.634 km
Speed
7.593 km/s
True Right ascension
03h 46m 43s
True Declination
0° 00' 00"
Sunlit
Object was in full shadow at epoch
Visualization orbit readout
Latitude
Unknown
Longitude
Unknown
Altitude
Unknown
Speed
Unknown
Apparent Right ascension
Unknown
Apparent Declination
Unknown
Sunlit
N/A
Visualization observer readout
Local Sidereal Time
13:18:58
Azimuth
Unknown
Elevation
Unknown
Doppler factor
Unknown
Orbital elements
Apogee altitude
540.861 km
Perigee altitude
539.18 km
Semi-major axis
6,918.158 km
Eccentricity
0.00012
Inclination
53.2178°
RAAN
56.6794°
Arg. of periapsis
87.4505°
True anomaly
272.64879°
Mean anomaly
272.6627°
Eccentric anomaly
272.65575°
Mean motion
3.77188 °/min
Orbital period
95.44 mins
BSTAR
-0.00001573
Loading maneuver chart data...
Computing Atmospheric mass density...
Loading historical data...
Loading historical data...
Loading historical data...
Loading historical data...
Loading historical data...
Loading historical data...
Loading historical data...

Documentation

Showing up to 5 results
|